Date,TemperatureHighF,TemperatureAvgF,TemperatureLowF,DewpointHighF,DewpointAvgF,DewpointLowF,HumidityHigh,HumidityAvg,HumidityLow,PressureMaxIn,PressureMinIn,WindSpeedMaxMPH,WindSpeedAvgMPH,GustSpeedMaxMPH,PrecipitationSumIn
2013-2-1,20,6,-3,11,-6,-12,66,58,50,0.00,40.00,22,10,27,0.00
2013-2-2,25,19,14,20,10,5,81,69,56,0.00,40.00,19,10,25,0.04
2013-2-3,25,20,16,17,11,7,84,67,49,0.00,40.00,23,11,31,0.07
2013-2-4,27,23,15,19,14,9,79,69,57,0.00,40.00,19,8,23,0.00
2013-2-5,36,28,15,27,21,9,81,74,64,0.00,40.00,19,10,26,0.00
2013-2-6,44,34,21,30,25,17,85,70,57,0.00,40.00,17,8,24,0.51
2013-2-7,39,36,32,34,32,28,88,86,71,0.00,40.00,16,8,24,5.73
2013-2-8,32,28,27,28,22,19,85,74,69,0.00,40.00,20,9,24,0.00
2013-2-9,36,30,26,28,24,20,85,77,63,0.00,40.00,25,11,34,0.00
2013-2-10,50,41,32,45,35,28,88,81,55,0.00,40.00,35,18,46,0.39
2013-2-11,36,32,28,29,21,18,72,64,58,0.00,40.00,37,25,50,0.00
2013-2-12,38,30,25,25,20,16,78,65,51,0.00,40.00,18,10,22,0.00
2013-2-13,43,35,27,30,27,23,84,71,55,0.00,40.00,16,8,19,0.00
2013-2-14,41,37,30,31,28,23,85,70,49,0.00,40.00,23,14,32,0.00
2013-2-15,30,24,18,25,11,5,82,56,35,0.00,40.00,20,14,26,0.00
2013-2-16,24,18,12,12,9,5,76,66,54,0.00,40.00,16,9,24,0.00
2013-2-17,36,25,14,21,13,7,79,60,42,0.00,40.00,21,12,28,0.00
2013-2-18,56,37,18,42,28,9,89,71,46,0.00,40.00,32,18,41,1.61
2013-2-19,20,13,6,9,2,-3,69,61,51,0.00,40.00,34,23,42,0.00
2013-2-20,24,14,4,10,3,-5,74,63,53,0.00,40.00,14,7,21,0.00
2013-2-21,28,21,13,24,16,7,89,79,69,0.00,40.00,27,13,37,0.00
2013-2-22,34,27,23,31,23,18,89,83,70,0.00,40.00,19,12,27,6.64
2013-2-23,31,24,18,19,16,12,80,70,56,0.00,40.00,16,10,21,3.56
2013-2-24,38,25,11,22,16,8,85,71,44,0.00,40.00,7,4,9,11.96
2013-2-25,40,32,22,29,24,19,87,75,53,0.00,40.00,18,7,23,2.16
2013-2-26,35,32,30,29,27,26,89,81,68,0.00,40.00,26,19,37,0.52
2013-2-27,33,31,29,30,28,26,88,87,86,0.00,40.00,20,14,24,0.63
2013-2-28,35,32,29,29,27,26,88,81,71,0.00,40.00,17,10,20,0.42